Weather in Mykolaivka

Ukraine / Luhansk Region     48°46′19″N   38°20′11″E
temp.,
°C
wind,
m/s
gust,
m/s
humid.,
%
clouds,
%
prec.,
mm/h
press.,
hPa
HPBL,
m
15 may, sat
sat1500:00+15sw37701 0.1 101195
03:00+14w228114 0.2 101211
06:00+14sw2379100 0.0 101353
09:00+19wsw226110 0.1 1013278
12:00+23sw33445 0.0 10141158
15:00+25sw354119 0.0 10132086
18:00+23w355339 0.0 1013224
21:00+17wnw116358 0.0 101411
16 may, sun
sun1600:00+16n22705 0.0 101411
03:00+15ne22730 0.0 101413
06:00+15nne25776 0.0 1013109
09:00+21ene46625 0.0 1013515
12:00+26ene565534 0.0 10111253
15:00+27e674945 0.0 10101596
18:00+24e595320 0.0 1009372
21:00+19ene34645 0.0 100848
17 may, mon
mon1700:00+17e4136962 0.0 1007244
03:00+15e413725 0.0 1006214
06:00+15e513695 0.0 1006271
09:00+20ese710552 0.0 1006561
12:00+25sse784896 0.0 10061080
15:00+26sse675174 0.0 10061211
18:00+25sse4662100 0.0 1005771
21:00+19s4967100 0.0 1008247
18 may, tue
tue1800:00+15s3692100 0.0 1008112
03:00+15ssw378580 0.0 1008332
06:00+15s3985100 0.0 1009470
09:00+16sse4786100 0.3 1010437
12:00+22ssw5655100 0.0 10091343
15:00+24ssw565189 1.0 10091998
18:00+21s686057 0.0 1008676
21:00+16s4977100 0.0 1009228
19 may, wed
wed1900:00+14s51287100 0.0 1009343
03:00+14ssw61291100 0.0 1009513
06:00+14s5119285 0.9 1009510
09:00+16sw8118299 1.1 1009983
12:00+19wsw7960100 0.3 10101593
15:00+19w4559100 0.6 10111176
18:00+19wnw45625 0.2 10111100
21:00+14ssw11790 0.6 101310